Weather in Kubina

Russia / Karachay-Cherkess Republic     44°04′06″N   41°57′16″E
В апреле 2022 года жителям России запретили посещать сайт meteo.paraplan.net по решению Генеральной прокуратуры. Аудитория сайта уменьшилась в 10 раз. Владельцы сайта не видят смысла в поддержке погодного сервера в таких условиях. Сайт будет закрыт в октябре.
temp.,
°C
wind,
m/s
gust,
m/s
humid.,
%
clouds,
%
prec.,
mm/h
press.,
hPa
HPBL,
m
3 october, mon
mon300:00+17s3341100 0.0 100433
03:00+12ne126499 0.1 100717
06:00+13wnw2276100 0.2 100984
09:00+12nnw2294100 4.9 1012333
12:00+10n3393100 0.3 1015488
15:00+11nne2288100 0.3 1015538
18:00+10ne2290100 0.0 1016264
21:00+10ne1291100 0.0 1016176
4 october, tue
tue400:00+10e1190100 0.0 101473
03:00+10se1192100 0.0 101415
06:00+10s118995 0.2 101314
09:00+12nnw2281100 0.3 1014209
12:00+16n326775 0.0 1015835
15:00+15nne227699 0.8 1016634
18:00+13nne1188100 0.3 101838
21:00+12ne2292100 0.4 101855
5 october, wed
wed500:00+12s3494100 3.3 1019102
03:00+11s2294100 5.8 102057
06:00+10se1191100 1.1 102011
09:00+11w2396100 1.3 1022283
12:00+11ese018390 0.8 1023210
15:00+11se1185100 1.7 102397
18:00+10ssw2295100 6.9 102498
21:00+10nne1196100 14.8 102465
6 october, thu
thu600:00+9nw1197100 10.8 1025105
03:00+10wsw0188100 11.1 102511
06:00+9nw1193100 0.0 102515
09:00+10nne2295100 0.1 1025246
12:00+11ne238965 0.2 1025427
15:00+12nne3383100 0.3 1024630
18:00+10nne2393100 0.1 1025135
21:00+10ne119697 0.2 102560
7 october, fri
fri700:00+9ne119693 0.0 102538
03:00+7ene119645 0.0 102511
06:00+7se119311 0.0 102514
09:00+11nne218026 0.0 1024401
12:00+14n327056 0.0 1023798
15:00+15nne326738 0.0 1021815
18:00+10nne12923 0.0 102315
21:00+9s11920 0.0 102310